[[{"header":{"parameterUnit":"m.s-1","parameterCategory":1,"la1":30.2992,"la2":30.254,"lo1":-89.0895,"lo2":-89.0443,"dy":0.0025,"dx":0.0025,"nx":19,"ny":19,"refTime":"2026-03-14T21:00:00:Z","depth":0,"parameterNumber":2,"parameterNumberName":"U-component_of_WINDS"},"data":[0,0,0,3.5716,3.5718,3.5775,3.5775,3.5855,3.5856,0,0,0,0,0,0,0,0,0,0,0,3.5705,3.5705,3.5716,3.5718,3.5775,3.5775,3.5855,3.5856,0,0,0,0,0,0,0,0,0,0,0,3.5704,3.5705,3.5706,3.5718,3.5774,3.5775,3.5855,3.5809,0,0,0,0,0,0,0,0,0,0,3.5753,3.5746,3.5705,3.5706,3.5718,3.5774,3.5775,3.5807,3.5812,3.5833,0,3.5853,0,3.5856,3.5862,3.5862,0,0,0,3.5714,3.5742,3.5753,3.5706,3.5719,3.5774,3.5748,3.581,3.5815,3.584,3.5854,3.5857,3.5857,3.5862,3.5863,3.6,3.6001,0,0,3.5711,3.5717,3.5749,3.5757,3.575,3.5746,3.575,3.5813,3.5829,3.5855,3.5859,3.5859,3.5863,3.5864,3.5999,3.6,0,0,0,3.5704,3.5715,3.5724,3.5754,3.5764,3.5748,3.5752,3.5826,3.5829,3.586,3.586,3.5864,3.5865,3.5998,3.6,3.6047,0,0,0,3.5702,3.5711,3.5723,3.5728,3.5763,3.5796,3.5764,3.5824,3.5831,3.5859,3.5864,3.5866,3.5997,3.5999,3.6044,3.6068,0,0,0,3.5699,3.5711,3.5721,3.5728,3.5753,3.5794,3.5801,3.5825,3.5831,3.5862,3.5866,3.5997,3.5999,3.6041,3.6063,3.6107,0,0,0,3.5697,3.5761,3.5722,3.5794,3.5752,3.5824,3.58,3.5853,3.5885,3.5864,3.5997,3.5999,3.604,3.606,3.6103,3.6144,3.6161,0,0,3.5781,3.5771,3.5813,3.578,3.586,3.5815,3.5902,3.5925,3.5922,3.5974,3.5977,3.6045,3.6063,3.6106,3.6259,3.6273,0,0,0,3.5842,3.5872,3.5892,3.5924,3.5944,3.5964,3.5973,3.5982,3.6026,3.595,3.6072,3.6083,3.6108,3.6127,3.6139,3.616,3.6009,3.6008,3.6008,3.5969,3.5963,3.6032,3.6034,3.6065,3.6076,3.61,3.6114,3.6097,3.6127,3.6142,3.6235,3.6258,3.6267,3.6289,3.6163,3.6163,3.6163,3.6163,3.6091,3.6133,3.6113,3.6172,3.6166,3.6216,3.6229,3.6216,3.6262,3.6223,3.6244,3.6201,3.6282,3.6301,3.6167,3.6166,3.6166,3.6166,3.6165,3.6173,3.6192,3.6204,3.6251,3.6288,3.6288,3.6333,3.6326,3.6318,3.634,3.6356,3.6355,3.6353,3.6349,3.6349,3.6349,3.6349,3.635,3.635,3.6253,3.6265,3.6304,3.6334,3.6354,3.6381,3.6394,3.6414,3.6434,3.6425,3.6425,3.6406,3.6292,3.6263,3.6355,3.6354,3.6353,3.6353,3.6353,3.6378,3.635,3.6411,3.6432,3.6467,3.6505,3.6496,3.6539,3.6554,3.6577,3.6555,3.6471,3.646,3.6451,3.6427,3.6555,3.6555,3.6555,3.6556,3.6447,3.6442,3.6504,3.6539,3.6572,3.6571,3.6641,3.6653,3.666,3.667,3.6651,3.6619,3.6609,3.6603,3.6591,3.6568,3.673,3.673,3.673,3.6524,3.6522,3.6583,3.6591,3.6619,3.6643,3.6709,3.675,3.6752,3.6737,3.6677,3.667,3.6618,3.6602,3.6583,3.6563,3.6522,0,0]},{"header":{"parameterUnit":"m.s-1","parameterCategory":1,"la1":30.2992,"la2":30.254,"lo1":-89.0895,"lo2":-89.0443,"dy":0.0025,"dx":0.0025,"nx":19,"ny":19,"refTime":"2026-03-14T21:00:00:Z","depth":0,"parameterNumber":3,"parameterNumberName":"V-component_of_WINDS"},"data":[0,0,0,-7.5277,-7.5282,-7.5537,-7.5538,-7.5863,-7.5866,0,0,0,0,0,0,0,0,0,0,0,-7.5202,-7.5204,-7.5276,-7.5283,-7.5537,-7.5538,-7.5862,-7.5866,0,0,0,0,0,0,0,0,0,0,0,-7.5201,-7.5204,-7.5206,-7.5284,-7.5537,-7.5538,-7.5862,-7.567,0,0,0,0,0,0,0,0,0,0,-7.5422,-7.5354,-7.5203,-7.5206,-7.5285,-7.5536,-7.5538,-7.566,-7.5682,-7.5748,0,-7.5808,0,-7.5842,-7.5888,-7.5889,0,0,0,-7.5282,-7.5336,-7.5405,-7.5207,-7.5288,-7.5536,-7.5422,-7.5672,-7.5696,-7.5776,-7.5812,-7.5824,-7.5847,-7.589,-7.5891,-7.628,-7.6282,0,0,-7.5268,-7.5248,-7.5388,-7.542,-7.5382,-7.5414,-7.543,-7.5687,-7.5724,-7.5813,-7.5832,-7.5853,-7.5892,-7.5894,-7.6278,-7.6281,0,0,0,-7.5228,-7.5238,-7.53,-7.5407,-7.5453,-7.5421,-7.544,-7.5713,-7.5735,-7.5835,-7.5857,-7.5894,-7.5898,-7.6276,-7.6279,-7.6353,0,0,0,-7.5219,-7.5215,-7.5294,-7.5284,-7.5448,-7.5587,-7.546,-7.5717,-7.5747,-7.5855,-7.5894,-7.5901,-7.6274,-7.6278,-7.6347,-7.6391,0,0,0,-7.5185,-7.5211,-7.5248,-7.5282,-7.5391,-7.5583,-7.562,-7.5724,-7.576,-7.5889,-7.5902,-7.6273,-7.6277,-7.6341,-7.6382,-7.6489,0,0,0,-7.5142,-7.5308,-7.5249,-7.5442,-7.5389,-7.5627,-7.5618,-7.5796,-7.5915,-7.5896,-7.6275,-7.6279,-7.6339,-7.6376,-7.6483,-7.6576,-7.6613,0,0,-7.534,-7.5331,-7.5447,-7.5401,-7.5645,-7.5589,-7.5844,-7.5971,-7.6,-7.6185,-7.6195,-7.6349,-7.6381,-7.6488,-7.6825,-7.6854,0,0,0,-7.5502,-7.5585,-7.5654,-7.5768,-7.5871,-7.5963,-7.6054,-7.6101,-7.6259,-7.6092,-7.6417,-7.6436,-7.65,-7.6545,-7.657,-7.6626,-7.6299,-7.6298,-7.6298,-7.5753,-7.5784,-7.5978,-7.6041,-7.6151,-7.6245,-7.6337,-7.6417,-7.6414,-7.6491,-7.6546,-7.6747,-7.6799,-7.6818,-7.6876,-7.6597,-7.6597,-7.6597,-7.6598,-7.6047,-7.6169,-7.6165,-7.6351,-7.6383,-7.6539,-7.6637,-7.663,-7.678,-7.6707,-7.6765,-7.6683,-7.6849,-7.6902,-7.6603,-7.6602,-7.6602,-7.6601,-7.6601,-7.6215,-7.6279,-7.6336,-7.6506,-7.6633,-7.669,-7.6835,-7.6858,-7.6881,-7.6938,-7.6999,-7.6998,-7.7001,-7.6965,-7.6966,-7.6967,-7.6967,-7.6968,-7.6968,-7.6367,-7.6428,-7.6549,-7.6674,-7.6752,-7.6856,-7.6954,-7.703,-7.7121,-7.7126,-7.7127,-7.7117,-7.686,-7.6795,-7.6979,-7.6977,-7.6976,-7.6975,-7.6974,-7.6654,-7.6593,-7.678,-7.6858,-7.7007,-7.7133,-7.7162,-7.7316,-7.7383,-7.7454,-7.7433,-7.7239,-7.7231,-7.7211,-7.7158,-7.7425,-7.7425,-7.7425,-7.7425,-7.6796,-7.6795,-7.6992,-7.7116,-7.7239,-7.7285,-7.7495,-7.7573,-7.7643,-7.7686,-7.7651,-7.7582,-7.7561,-7.7565,-7.7538,-7.7489,-7.7835,-7.7835,-7.7835,-7.6975,-7.6988,-7.7162,-7.7232,-7.7351,-7.7453,-7.7652,-7.7794,-7.7861,-7.7852,-7.7721,-7.7704,-7.7593,-7.7555,-7.7542,-7.75,-7.741,0,0]}]]